Location: Unspecified
(37.4650°N, 3.9240°W)
Time: 10:28:21
(UTC+00:00)

Daily predictions for brighter satellites

Satellite Brightness Start Highest point End
(mag) Time Altitude Azimuth Time Altitude Azimuth Time Altitude Azimuth
BREEZE-M DEB (TANK) 1.7 19:42:58 10° NW 19:45:11 70° NE 19:48:19 10° ESE
Cosmos 1743 Rocket 3.5 19:42:38 10° N 19:47:01 82° E 19:51:23 10° S
GEOS 3 Rocket 4.2 19:42:28 10° SSE 19:47:46 63° WSW 19:53:07 10° NW
OBJECT-B 1.5 19:44:58 10° SE 19:47:58 37° ENE 19:51:00 10° N
Helios 1A Rocket 2.9 19:44:54 10° SSE 19:49:01 84° ENE 19:53:11 10° N
DELTA 2 R/B (1) 3.7 19:44:03 10° WNW 19:49:38 76° SSW 19:55:10 10° ESE
Cosmos 1862 4.5 19:46:49 10° NNW 19:50:41 46° W 19:54:33 10° SSW
Cosmos 1606 3.1 19:47:14 10° SSW 19:50:57 67° W 19:54:45 10° N
Cosmos 1844 Rocket 3.6 19:45:44 10° SW 19:51:09 54° WNW 19:56:38 10° NNE
Cosmos 2278 Rocket 3.3 19:48:06 10° SSE 19:52:25 23° E 19:56:44 10° NE
CZ-4 R/B 4.0 19:50:41 10° SSW 19:53:50 22° W 19:57:00 10° NW
NOSS 3-3 (A) 3.8 19:50:10 10° SSW 19:55:40 69° ESE 20:01:52 10° NE
NOSS 3-3 (C) 3.8 19:50:16 10° SSW 19:55:48 68° ESE 20:01:58 10° NE
CZ-4C R/B 4.1 19:50:16 10° NNW 19:56:34 30° NE 20:03:38 10° ESE
Cosmos 1500 Rocket 3.8 19:52:41 10° N 19:57:03 75° W 20:01:22 10° S
OAO 3 Rocket 4.3 19:55:40 10° SSW 19:59:16 22° SSE 20:02:50 10° ESE
MetOp-A 4.2 19:56:25 10° SSE 20:01:46 88° WSW 20:07:09 10° NNW
Resurs 1-3 4.4 19:57:56 10° SE 20:01:53 35° ENE 20:05:52 10° N
Cosmos 1933 3.3 20:01:21 10° S 20:05:19 62° E 20:09:19 10° NNE
USA 290 2.3 20:02:29 10° N 20:05:41 59° ENE 20:08:33 12° SSE
Cosmos 1666 Rocket 4.5 20:02:53 10° NNE 20:06:44 30° ENE 20:09:56 13° SE
CSL-04 Rocket 4.5 20:02:48 10° S 20:07:56 51° W 20:13:09 10° NNW
ATLAS 5 CENTAUR R/B 2.6 20:03:22 10° NNW 20:09:09 61° NE 20:15:08 13° SE
Cosmos 1354 Rocket 4.0 20:04:27 10° SSW 20:09:40 87° ESE 20:14:56 10° NNE
SJ 16-02 2.9 20:09:05 13° SE 20:10:58 17° E 20:13:49 10° NE
Cosmos 1782 3.4 20:08:26 10° SSE 20:12:08 37° E 20:15:49 10° NNE
Sich 1 3.0 20:11:05 10° N 20:15:26 68° E 20:19:48 10° SSE
Cosmos 1745 Rocket 3.9 20:09:27 10° N 20:15:39 76° E 20:21:45 10° S
Tianhe-1 2.4 20:13:38 10° SSW 20:16:03 21° SSE 20:16:47 19° SE
Cosmos 1709 Rocket 4.4 20:11:55 10° N 20:17:43 43° ENE 20:22:42 14° SSE
Cosmos 1812 4.3 20:17:33 16° ESE 20:18:40 18° E 20:21:23 10° NE
Cosmos 2084 4.1 20:15:27 10° SW 20:19:29 56° NW 20:23:37 10° NNE
Cosmos 1437 3.3 20:20:01 21° SE 20:21:08 29° E 20:23:39 10° NNE
SJ-6B 3.1 20:19:33 10° S 20:23:23 66° WSW 20:27:20 10° NNW
Cosmos 1151 Rocket 3.1 20:20:11 10° S 20:24:25 55° E 20:28:42 10° NNE
CZ-3C R/B 4.1 20:23:48 10° S 20:25:34 11° SSE 20:25:44 11° SSE
Cosmos 1833 Rocket 3.8 20:26:47 10° N 20:31:44 30° ENE 20:34:50 18° ESE
S3M 4.4 20:25:50 10° SSW 20:32:09 67° W 20:38:28 10° N
Meteor 1-25 Rocket 4.3 20:28:39 10° N 20:34:32 88° E 20:40:10 11° S
SPOT 3 Rocket 3.9 20:35:42 21° SE 20:38:52 48° ENE 20:43:49 10° N
MOS 1 4.4 20:33:21 10° SSE 20:38:57 82° WSW 20:44:40 10° NNW
IGS 5A 3.9 20:37:52 25° SE 20:39:50 44° ENE 20:43:47 10° N
Cosmos 2315 Rocket 4.0 20:35:56 10° S 20:42:17 77° E 20:48:40 10° N
Cosmos 773 Rocket 4.2 20:38:32 10° N 20:43:46 58° ENE 20:46:41 26° SE
IRIS 3.7 20:43:01 10° WNW 20:45:21 72° NNE 20:45:54 49° E
USA 267 4.3 20:41:04 11° S 20:46:49 37° SW 20:52:48 10° WNW
CZ-2C R/B 3.9 20:43:12 10° NNE 20:47:36 49° E 20:50:08 24° SSE
Cosmos 783 Rocket 4.4 20:42:36 10° NNW 20:47:52 82° ENE 20:51:03 24° SSE
Resurs 01 Rocket 1.6 20:48:59 27° SSE 20:51:22 72° ENE 20:55:49 10° N
CRYOSAT 2 4.5 20:51:30 27° SSE 20:53:58 57° E 20:58:46 10° N
Cosmos 1500 3.3 20:52:38 10° N 20:56:18 52° E 20:57:03 43° ESE
Cosmos 1515 Rocket 3.5 21:02:05 33° SSE 21:03:57 67° E 21:08:19 10° NNE
GPS 2-04 Rocket1 2.6 21:01:54 10° W 21:06:02 69° S 21:06:50 52° ESE
Delta 2 Rocket 3.6 21:06:11 10° WSW 21:11:14 68° S 21:12:33 45° ESE
Cosmos 1633 Rocket 3.7 21:10:01 10° NNW 21:14:18 53° W 21:16:40 25° SSW
Cosmos 2082 Rocket 3.1 21:11:01 10° N 21:16:08 35° ENE 21:17:39 30° E
MetOp-B 4.0 21:14:30 35° SSE 21:16:49 86° ENE 21:22:12 10° NNW
USA 307 4.2 21:13:34 10° NNW 21:17:24 31° NE 21:18:35 27° ENE
X-37B 1.2 21:14:48 10° WNW 21:17:29 49° WSW 21:17:29 49° WSW
Terra 3.2 21:20:30 23° ENE 21:20:47 23° ENE 21:24:28 10° NNE
Cosmos 1271 Rocket 2.6 21:26:40 77° ESE 21:26:45 78° E 21:30:45 10° NNE
Cosmos 1470 Rocket 3.8 21:24:16 10° NNW 21:28:44 68° W 21:29:56 46° SSW
COSMOS 2406 3.1 21:23:18 10° NNW 21:28:59 89° ENE 21:30:42 47° SSE
CARTOSAT-1 3.7 21:29:50 54° E 21:29:56 54° ENE 21:34:09 10° N
USA 308 3.8 21:27:09 10° NNW 21:31:12 39° NE 21:31:47 37° ENE
Cosmos 1898 Rocket 4.1 21:33:29 38° E 21:33:29 38° E 21:37:49 10° NE
Cosmos 1943 Rocket 3.4 21:34:50 25° ENE 21:34:50 25° ENE 21:38:02 10° NE
Cosmos 2278 Rocket 3.3 21:30:46 10° SW 21:36:08 44° WNW 21:41:33 10° N
SPOT 5 3.3 21:35:56 47° E 21:36:30 49° ENE 21:41:34 10° N
Meteor 2-6 Rocket 4.5 21:34:33 23° SSW 21:37:57 63° W 21:43:27 10° N
ARIANE 5 R/B 2.4 21:38:32 75° E 21:38:36 75° ENE 21:42:56 10° N
Cosmos 990 Rocket 4.0 21:39:32 59° ESE 21:39:38 59° ESE 21:44:47 10° NNE
NOSS 3-4 (A) 4.1 21:35:01 10° NNW 21:42:06 62° NE 21:44:50 41° ESE
NOSS 3-4 (C) 4.1 21:35:08 10° NNW 21:42:13 61° NE 21:44:56 40° ESE
OAO 3 Rocket 4.0 21:37:44 10° WSW 21:40:41 35° SW 21:40:41 35° SW
Cosmos 1933 Rocket 3.5 21:38:26 10° N 21:42:46 74° W 21:43:02 71° SW
Cosmos 2369 Rocket 4.3 21:46:03 12° ENE 21:46:03 12° ENE 21:46:50 10° ENE
Iridium 4 Rocket 3.8 21:43:35 44° S 21:45:31 83° W 21:51:29 10° N
CZ-4C R/B 3.1 21:38:09 10° NW 21:45:46 73° WSW 21:49:09 40° SSE
Meteor 1-27 Rocket 3.7 21:45:19 58° SSE 21:46:20 69° E 21:52:12 10° NNE
SJ 16-02 2.7 21:45:57 15° SW 21:49:11 37° WNW 21:53:18 10° N
ATLAS 5 CENTAUR R/B 4.2 21:48:50 10° WNW 21:53:38 24° WSW 21:56:41 17° SSW
ATLAS 2AS CENTAUR R/B 3.4 21:48:31 10° NNW 21:55:25 43° NE 21:57:25 35° E
Cosmos 158 Rocket 3.7 21:56:21 10° NNW 22:01:11 86° WNW 22:01:11 86° WNW
Cosmos 1666 3.9 21:57:59 10° NNW 22:00:56 38° WNW 22:00:56 38° WNW
SPOT 1/Viking Rocket 4.4 22:01:38 36° SW 22:02:52 42° W 22:07:47 10° NNW
Cosmos 2154 Rocket 3.9 21:56:55 10° N 22:03:16 76° E 22:04:05 66° SE
Nadezhda 1 Rocket 4.0 22:08:05 52° SSW 22:09:43 78° W 22:15:59 10° N
Cosmos 2184 Rocket 4.2 22:04:06 10° NNW 22:10:12 63° W 22:11:39 49° SW
USA 305 3.7 22:06:15 10° NW 22:09:27 50° NW 22:09:27 50° NW
Cosmos 2074 Rocket 4.4 22:06:12 10° NNW 22:12:22 59° W 22:14:01 45° SW
Cosmos 1833 Rocket 3.7 22:10:34 10° NW 22:15:38 35° WSW 22:16:32 33° SW
Cosmos 2112 Rocket 4.3 22:13:07 10° N 22:17:59 57° NE 22:17:59 57° NE
Meteor 1-11 Rocket 3.9 22:14:04 10° NNW 22:19:57 66° W 22:20:35 61° SW
Cosmos 1340 Rocket 4.3 22:16:19 10° N 22:18:44 33° N 22:18:44 33° N
ERS-1 Rocket 3.6 22:29:57 48° W 22:29:57 48° W 22:34:35 10° NNW
USA 306 4.4 22:25:45 10° NW 22:28:11 32° WNW 22:28:11 32° WNW
Cosmos 1937 Rocket 3.8 22:32:53 62° N 22:32:53 62° N 22:37:13 10° NNE
Cosmos 2297 4.1 22:36:37 53° W 22:37:23 57° WNW 22:43:00 10° NNE
Cosmos 2181 Rocket 4.1 22:39:14 60° ENE 22:39:14 60° ENE 22:44:37 10° NNE
Cosmos 1680 Rocket 4.0 22:39:35 10° NNW 22:44:02 57° WNW 22:44:02 57° WNW
Cosmos 2366 rocket 4.4 22:41:33 10° N 22:46:59 51° ENE 22:46:59 51° ENE
Milstar 3 3.8 22:38:06 10° WSW 22:49:01 47° SSW 22:49:01 47° SSW
Terra 3.3 22:59:22 30° WNW 22:59:22 30° WNW 23:02:37 10° NNW
Cosmos 2082 Rocket 3.6 22:55:16 10° NW 22:59:30 29° W 22:59:30 29° W
Cosmos 2341 Rocket 4.1 22:55:20 10° N 23:01:27 73° WNW 23:01:27 73° WNW
Cosmos 44 4.4 23:00:24 10° NW 23:04:11 45° NW 23:04:11 45° NW
Cosmos 2218 Rocket 4.1 23:06:39 10° N 23:12:18 73° N 23:12:18 73° N
Cosmos 1818 4.3 23:08:15 10° NNW 23:12:17 50° NNW 23:12:17 50° NNW
Cosmos 1943 Rocket 3.3 23:16:17 35° WNW 23:16:52 36° WNW 23:22:01 10° N
Cosmos 2369 Rocket 2.9 23:27:47 50° NNW 23:27:47 50° NNW 23:32:21 10° NNE
ATLAS CENTAUR R/B 4.4 23:41:53 10° NNE 23:41:53 10° NNE 23:41:53 10° NNE
ATLAS 2AS CENTAUR R/B 3.8 23:39:49 10° NW 23:44:50 33° W 23:44:50 33° W
Lacrosse 5 4.2 23:50:43 16° NE 23:50:43 16° NE 23:51:43 10° NE
